sat.trackr.live / text

‹ back to catalog

STARLINK-30148

NORAD 57617 · 2023-119R

PAYLOAD ACTIVE UNKNOWN

§ Identity

Operator
Country
US
Launch date
2023-08-11
Launch site
AFETR
Launch vehicle
Mass (kg)
RCS (m²)

Purposes: comms

External: N2YO · Heavens-Above · Gunter

§ Orbital elements

Epoch: 2026-05-25T00:27:59.984064Z

Period
94.27 min
Inclination
43.0061°
Eccentricity
0.0001497
Mean motion
15.27571001 rev/d
Perigee alt
482.0 km
Apogee alt
484.1 km
Semi-major
6,861.2 km
B*
2.9102e-5
RAAN
10.2074°
Arg perigee
268.4922°
Mean anomaly
91.5758°
Rev number
15,476

§ Raw data

STARLINK-301481 57617U 23119R   26145.01944426  .00000538  00000+0  29102-4 0  99932 57617  43.0061  10.2074 0001497 268.4922  91.5758 15.27571001154767

JSON: /api/v1/satellites/57617 · /tle

For live sub-satellite position, see the globe view (requires WebGL).

§ Visibility from observer

Set your observer location to see the next 7 days of passes ≥ 10°. The values pass through the URL so the page stays shareable.

No JS? Fill the form by hand. The geolocation button needs JavaScript.